FW8055 Weather Reports


time (UTC)temp
C
wind
direction
speed
KPH
gust
KPH
rain 1hr
cm
rain 24hr
cm
rain mn
cm
humidity
%
barometer
mb
20260509083052 9 0 0.0 0.0 0.00 0.00 0.00 89 1021.9
20260509081543 10 0 0.0 0.0 0.00 0.00 0.00 89 1021.8
20260509080047 10 0 0.0 0.0 0.00 0.00 0.00 88 1021.9
20260509074605 10 0 0.0 0.0 0.00 0.00 0.00 88 1021.9
20260509073101 10 0 0.0 0.0 0.00 0.00 0.00 87 1022.0
20260509071555 10 0 0.0 0.0 0.00 0.00 0.00 87 1022.1
20260509070051 11 0 0.0 0.0 0.00 0.00 0.00 86 1022.2
20260509064544 11 0 0.0 0.0 0.00 0.00 0.00 86 1022.2
20260509063057 11 0 0.0 0.0 0.00 0.00 0.00 85 1022.2
20260509061547 11 0 0.0 0.0 0.00 0.00 0.00 84 1022.2
20260509060105 11 0 0.0 0.0 0.00 0.00 0.00 84 1022.1
20260509054543 12 0 0.0 0.0 0.00 0.00 0.00 82 1022.2
20260509053057 12 0 0.0 0.0 0.00 0.00 0.00 81 1022.1
20260509051548 12 0 0.0 0.0 0.00 0.00 0.00 80 1022.0
20260509050046 13 0 0.0 0.0 0.00 0.00 0.00 79 1021.9
20260509044545 13 0 0.0 0.0 0.00 0.00 0.00 78 1021.9
20260509043054 14 0 0.0 0.0 0.00 0.00 0.00 76 1021.7
20260509041544 15 0 0.0 0.0 0.00 0.00 0.00 74 1021.7
20260509040059 15 0 0.0 0.0 0.00 0.00 0.00 72 1021.6
20260509034546 16 0 0.0 0.0 0.00 0.00 0.00 68 1021.4
20260509033109 17 0 0.0 1.6 0.00 0.00 0.00 66 1021.2
20260509031549 17 0 0.0 1.6 0.00 0.00 0.00 64 1021.1
20260509030043 18 0 0.0 8.0 0.00 0.00 0.00 60 1021.1
20260509024557 18 0 0.0 3.2 0.00 0.00 0.00 58 1021.1
20260509023046 18 5 0.0 8.0 0.00 0.00 0.00 58 1020.9
20260509021547 19 0 1.6 6.4 0.00 0.00 0.00 56 1021.0
20260509020047 19 338 3.2 9.7 0.00 0.00 0.00 55 1021.0
20260509014545 20 42 3.2 8.0 0.00 0.00 0.00 53 1020.9
20260509013047 20 360 1.6 11.3 0.00 0.00 0.00 52 1020.9
20260509011545 20 347 1.6 6.4 0.00 0.00 0.00 52 1021.0
20260509010046 20 19 3.2 12.9 0.00 0.00 0.00 50 1021.0
20260509004549 20 40 3.2 9.7 0.00 0.00 0.00 50 1021.0
20260509003047 20 0 3.2 14.5 0.00 0.00 0.00 50 1021.1
20260509001542 21 339 3.2 11.3 0.00 0.00 0.00 49 1021.0
20260509000043 21 39 3.2 9.7 0.00 0.00 0.00 47 1020.9
20260508234542 21 15 3.2 14.5 0.00 0.00 0.00 48 1021.0
20260508233045 21 331 4.8 11.3 0.00 0.00 0.00 48 1021.1
20260508231549 21 11 3.2 14.5 0.00 0.00 0.00 48 1021.1
20260508230045 21 352 4.8 11.3 0.00 0.00 0.00 49 1021.1
20260508224551 21 22 3.2 12.9 0.00 0.00 0.00 49 1021.1
20260508223042 20 5 3.2 16.1 0.00 0.00 0.00 48 1021.2
20260508221547 20 99 1.6 12.9 0.00 0.00 0.00 50 1021.3
20260508220054 20 19 1.6 9.7 0.00 0.00 0.00 51 1021.5
20260508214547 20 44 3.2 9.7 0.00 0.00 0.00 50 1021.5
20260508213047 20 219 1.6 6.4 0.00 0.00 0.00 51 1021.8
20260508211550 19 49 1.6 8.0 0.00 0.00 0.00 52 1021.9
20260508210051 18 21 1.6 12.9 0.00 0.00 0.00 55 1021.7
20260508204546 18 59 3.2 12.9 0.00 0.00 0.00 53 1022.0
20260508203046 18 336 4.8 12.9 0.00 0.00 0.00 53 1022.1
20260508201544 18 18 1.6 6.4 0.00 0.00 0.00 55 1022.0
20260508200049 17 0 0.0 9.7 0.00 0.00 0.00 55 1022.3
20260508194600 17 114 0.0 12.9 0.00 0.00 0.00 58 1022.3
20260508193105 16 81 1.6 9.7 0.00 0.00 0.00 58 1022.5
20260508191552 16 31 3.2 6.4 0.00 0.00 0.00 60 1022.6
20260508184543 15 35 4.8 11.3 0.00 0.00 0.00 61 1022.5
20260508183051 15 39 1.6 9.7 0.00 0.00 0.00 62 1022.6
20260508181554 14 74 3.2 9.7 0.00 0.00 0.00 64 1022.8
20260508180049 14 207 3.2 8.0 0.00 0.00 0.00 65 1022.9
20260508174552 13 0 0.0 6.4 0.00 0.00 0.00 69 1022.7
20260508173054 12 37 0.0 8.0 0.00 0.00 0.00 71 1022.6
20260508171555 12 26 0.0 6.4 0.00 0.00 0.00 74 1022.5
20260508170057 12 19 1.6 4.8 0.00 0.00 0.00 75 1022.3
20260508164554 11 0 0.0 4.8 0.00 0.00 0.00 77 1022.2
20260508163059 11 0 0.0 4.8 0.00 0.00 0.00 75 1022.0
20260508161553 11 43 0.0 3.2 0.00 0.00 0.00 78 1021.7
20260508160047 11 0 0.0 4.8 0.00 0.00 0.00 77 1022.2
20260508154545 11 0 0.0 4.8 0.00 0.00 0.00 76 1022.0
20260508153056 11 0 0.0 3.2 0.00 0.00 0.00 78 1022.1
20260508151544 10 190 0.0 4.8 0.00 0.00 0.00 78 1022.1
20260508150042 10 0 0.0 1.6 0.00 0.00 0.00 78 1022.0
20260508144545 10 0 0.0 6.4 0.00 0.00 0.00 81 1022.1
20260508143102 9 0 0.0 1.6 0.00 0.00 0.00 83 1022.1
20260508141544 8 0 0.0 3.2 0.00 0.00 0.00 87 1022.0
20260508140045 8 0 0.0 0.0 0.00 0.00 0.00 90 1021.9
20260508134547 7 0 0.0 0.0 0.00 0.00 0.00 90 1021.9
20260508133045 7 0 0.0 1.6 0.00 0.00 0.00 90 1021.8
20260508131549 7 0 0.0 0.0 0.00 0.00 0.00 89 1021.8
20260508130045 7 0 0.0 1.6 0.00 0.00 0.00 89 1021.4
20260508124548 7 0 0.0 0.0 0.00 0.00 0.00 88 1021.1
20260508123048 7 177 0.0 3.2 0.00 0.00 0.00 88 1020.9
20260508121547 7 0 0.0 1.6 0.00 0.00 0.00 88 1020.8
20260508120051 7 0 0.0 1.6 0.00 0.00 0.00 89 1020.8
20260508114547 7 0 0.0 3.2 0.00 0.00 0.00 90 1020.7
20260508113043 7 352 0.0 1.6 0.00 0.00 0.00 89 1020.6
20260508111549 7 0 0.0 3.2 0.00 0.00 0.00 88 1020.4
20260508110056 7 0 0.0 0.0 0.00 0.00 0.00 87 1020.1
20260508104544 8 0 0.0 0.0 0.00 0.00 0.00 87 1019.9
20260508103051 8 0 0.0 0.0 0.00 0.00 0.00 86 1019.7
20260508101554 8 0 0.0 1.6 0.00 0.00 0.00 87 1019.6
20260508100056 8 0 0.0 3.2 0.00 0.00 0.00 87 1019.4
20260508094548 8 0 0.0 0.0 0.00 0.00 0.00 86 1019.2
20260508093046 8 0 0.0 0.0 0.00 0.00 0.00 86 1019.0
20260508091604 9 0 0.0 0.0 0.00 0.00 0.00 86 1018.9
20260508090052 9 0 0.0 1.6 0.00 0.00 0.00 86 1018.9
20260508084547 9 0 0.0 0.0 0.00 0.00 0.00 85 1018.8